Content
SEND FEEDBACK

Daily
Averages
Monthly
Summary
French Polynesia

HITIAA, FRENCH POLYNESIA


Home > Oceania > French Polynesia
Elevation: 7 feet     Latitude: 17 33S     Longitude: 149 37W

WEATHER
 
SELECT A DAY
Number of Records: 214,388;   Date Range: 6/30/96 - 10/24/14
 
SHARE

PRINT THIS DATA

[ ← Previous Day ]
WEATHER ALMANAC - JANUARY 17, 2013
[ Next Day → ]
[ °C ]   °F
Weather ElementAverageHighLow
Temperature80 °F84.2 °F (11:00 am)73.4 °F (11:00 pm)
Dewpoint71.7 °F75.2 °F (8:30 am)66.2 °F (11:30 pm)
Humidity75.4 %94 % (9:30 pm)61 % (5:00 am)
Barometer29.79 in29.87 in (11:00 pm)29.74 in (2:00 am)
Wind Speed13.1 mph31.1 mph (9:30 pm)
Wind Gust36.8 mph (6:00 am)
Weather ElementAverage
Visibility5.5 mi
Wind DirectionENE (65.2 °)

Weather ElementTotal
Precipitation---
Cooling Degree Days13.8 (Base 65)
Growing Degree Days28.8 (Base 50)
Averaged from 54 records on January 17, 2013
WEATHER CONDITIONS BREAKOUT
WIND DIRECTION BREAKOUT
WEATHER BY HOUR - JANUARY 17, 2013
[ °C ]   °F
Local TimeTemperatureDewpointHumidityBarometerVisibilityWind DirectionWind SpeedGust SpeedPrecipitationEventsConditions
12:30 AM82.4 °F69.8 °F66 %29.77 in6.2 miENE (60°)9.2 mphMostly Cloudy
1:00 AM82.4 °F69.8 °F66 %29.77 in6.2 miENE (60°)10.4 mphMostly Cloudy
1:30 AM82.4 °F69.8 °F66 %29.77 in6.2 miENE (60°)9.2 mphMostly Cloudy
2:00 AM82.0 °F72.0 °F66 %29.77 in12.0 miENE (70°)8.1 mphOvercast
2:00 AM82.4 °F73.4 °F74 %29.74 in6.2 miENE (70°)8.1 mphMostly Cloudy
2:30 AM80.6 °F69.8 °F70 %29.74 in6.2 miEast (80°)8.1 mphMostly Cloudy
3:00 AM80.6 °F73.4 °F79 %29.74 in6.2 miENE (60°)11.5 mphMostly Cloudy
3:30 AM82.4 °F71.6 °F70 %29.74 inENE (60°)15.0 mph
4:00 AM82.4 °F71.6 °F70 %29.74 inENE (60°)12.7 mph
4:30 AM82.4 °F71.6 °F70 %29.77 inENE (60°)10.4 mph
5:00 AM82.0 °F71.0 °F61 %29.77 inENE (60°)24.6 mphClear
5:00 AM82.4 °F71.6 °F70 %29.77 inENE (60°)12.7 mph
5:30 AM78.8 °F71.6 °F78 %29.77 inENE (70°)16.1 mphRainLight Rain
6:00 AM75.2 °F69.8 °F83 %29.80 in3.1 miEast (80°)19.6 mph36.8 mphRainLight Rain
6:30 AM77.0 °F71.6 °F83 %29.80 in6.2 miENE (70°)8.1 mphRainLight Rain
7:00 AM78.8 °F71.6 °F78 %29.80 in6.2 miENE (70°)8.1 mphRainLight Rain
7:30 AM77.0 °F71.6 °F83 %29.80 in6.2 miENE (70°)12.7 mphRainLight Rain
8:00 AM80.0 °F72.0 °F72 %29.82 in3.0 miENE (60°)11.5 mphRainLight Rain
8:00 AM78.8 °F73.4 °F83 %29.80 in3.1 miENE (60°)11.5 mphRainLight Rain
8:30 AM78.8 °F75.2 °F89 %29.80 in6.2 miENE (60°)9.2 mphMostly Cloudy
9:00 AM82.4 °F71.6 °F70 %29.83 in6.2 miENE (70°)11.5 mphMostly Cloudy
9:30 AM80.6 °F69.8 °F70 %29.83 in6.2 miENE (60°)10.4 mphMostly Cloudy
10:00 AM80.6 °F73.4 °F79 %29.80 in6.2 miENE (70°)12.7 mphRainLight Rain
10:30 AM82.4 °F73.4 °F74 %29.80 in6.2 miENE (70°)15.0 mphRainLight Rain
11:00 AM84.2 °F71.6 °F66 %29.80 in6.2 miENE (70°)16.1 mphMostly Cloudy
11:30 AM80.6 °F73.4 °F79 %29.80 in3.1 miENE (70°)17.3 mph29.9 mphRainLight Rain
12:00 PM80.6 °F69.8 °F70 %29.77 in6.2 miENE (70°)15.0 mphMostly Cloudy
12:30 PM80.6 °F69.8 °F70 %29.77 in6.2 miENE (70°)11.5 mphRainLight Rain
1:00 PM80.6 °F71.6 °F74 %29.77 in6.2 miEast (80°)13.8 mphRainLight Rain
1:30 PM80.6 °F71.6 °F74 %29.74 in6.2 miENE (70°)9.2 mphRainLight Rain
2:00 PM83.0 °F72.0 °F62 %29.75 in6.0 miENE (60°)20.1 mphRainLight Rain
2:00 PM82.4 °F71.6 °F70 %29.74 in6.2 miENE (60°)10.4 mphRainLight Rain
2:30 PM82.4 °F73.4 °F74 %29.74 in6.2 miENE (60°)12.7 mphMostly Cloudy
3:00 PM82.4 °F73.4 °F74 %29.74 in6.2 miENE (70°)12.7 mphMostly Cloudy
3:30 PM82.4 °F73.4 °F74 %29.74 in6.2 miENE (70°)12.7 mphRainLight Rain
4:00 PM82.4 °F71.6 °F70 %29.74 in6.2 miENE (70°)8.1 mphRainLight Rain
4:30 PM82.4 °F71.6 °F70 %29.74 in6.2 miEast (80°)8.1 mphMostly Cloudy
5:00 PM80.0 °F74.0 °F76 %29.79 in2.0 miENE (70°)8.1 mphRainHeavy Rain
5:00 PM80.6 °F73.4 °F79 %29.77 in1.9 miENE (70°)8.1 mphRainHeavy Rain
5:30 PM78.8 °F73.4 °F83 %29.77 in1.9 miENE (70°)11.5 mphRainLight Rain
6:00 PM78.8 °F71.6 °F78 %29.80 in1.9 miENE (70°)10.4 mphRainLight Rain
6:30 PM78.8 °F71.6 °F78 %29.80 in6.2 miENE (70°)11.5 mphRainLight Rain
7:00 PM78.8 °F71.6 °F78 %29.80 in6.2 miENE (70°)10.4 mphRainLight Rain
7:30 PM78.8 °F71.6 °F78 %29.83 in6.2 miENE (70°)9.2 mphRainLight Rain
8:00 PM78.0 °F72.0 °F76 %29.84 in7.0 miENE (70°)11.5 mphRainLight Rain
8:00 PM78.8 °F71.6 °F78 %29.83 in6.2 miENE (70°)11.5 mphRainLight Rain
8:30 PM78.8 °F71.6 °F78 %29.83 in6.2 miENE (70°)11.5 mphRainLight Rain
9:00 PM78.8 °F71.6 °F78 %29.83 in5.6 miENE (70°)12.7 mphRainLight Rain
9:30 PM75.2 °F73.4 °F94 %29.86 in1.2 miNorth (10°)31.1 mphRainRain
10:00 PM77.0 °F73.4 °F89 %29.86 in2.5 miNNE (20°)29.9 mphRainLight Rain
10:30 PM75.2 °F71.6 °F89 %29.86 in3.7 miNE (40°)23.0 mphRainLight Rain
11:00 PM74.0 °F70.0 °F84 %29.87 in6.0 miENE (70°)19.6 mphRainLight Rain
11:00 PM73.4 °F69.8 °F88 %29.86 in6.2 miENE (70°)19.6 mphRainLight Rain
11:30 PM75.2 °F66.2 °F73 %29.83 in6.2 miENE (70°)15.0 mphMostly Cloudy
Hourly data recorded from NTAA, located miles away from Hitiaa, French Polynesia







STORIES FROM OUR PARTNERS